Regional Weather Roundup
Issued by NWS

Home | Current Version | Previous Version | Graphics & Text | Print | Product List | Glossary On
Versions: 1 2 3 4 5 6 7 8 9 10 11 12 13 14 15 16 17 18 19 20 21 22 23 24 25 26 27 28 29 30 31 32 33 34 35 36 37 38 39 40 41 42 43 44 45 46 47 48 49 50
000
ASUS45 KBOI 200610
RWRID
WEATHER ROUNDUP FOR IDAHO
NATIONAL WEATHER SERVICE BOISE ID
1100 PM MST FRI DEC 19 2014

NOTE: "FAIR" INDICATES FEW OR NO CLOUDS BELOW 12000 FEET
WITH NO SIGNIFICANT WEATHER AND/OR OBSTRUCTIONS TO VISIBILITY

IDZ012-014-200700-
SOUTHWEST IDAHO


CITY           SKY/WX    TMP DP  RH WIND       PRES   REMARKS
BOISE          PTCLDY    38  34  85 SE9       30.08F WCI  31
CALDWELL       PTCLDY    36  28  75 E8        30.10S WCI  29
MOUNTAIN HOME  CLOUDY    35  34  95 E6        30.10F WCI  30
$$

IDZ016-017-200700-
SOUTHCENTRAL IDAHO


CITY           SKY/WX    TMP DP  RH WIND       PRES   REMARKS
BURLEY         CLOUDY    38  34  85 W6        30.09S WCI  33
JEROME         PTCLDY    35  32  88 SW6       30.10R WCI  30
TWIN FALLS     MOCLDY    37  32  82 W8        30.10R WCI  31
$$

IDZ019>023-200700-
SOUTHEAST IDAHO


CITY           SKY/WX    TMP DP  RH WIND       PRES   REMARKS
IDAHO FALLS    CLOUDY    34  32  92 SW10      30.09R WCI  26
POCATELLO      LGT RAIN  36  34  92 SW10      30.11R WCI  28
REXBURG        LGT SNOW  32  32 100 SW10      30.08R FOG     WCI  24
$$

IDZ006-010-011-018-031-032-200700-
CENTRAL IDAHO MOUNTAINS


CITY           SKY/WX    TMP DP  RH WIND       PRES   REMARKS
MCCALL         CLOUDY    31  30  96 S3        30.03S
HAILEY         CLOUDY    32  32 100 CALM      30.10R FOG
STANLEY          N/A     29  24  82 CALM      30.06R
SALMON         CLEAR     27  25  93 S3        30.03R
CHALLIS        MOCLDY    26  24  92 W3        30.03R
$$

IDZ002-004-006-007-026-200700-
NORTHERN IDAHO


CITY           SKY/WX    TMP DP  RH WIND       PRES   REMARKS
LEWISTON       FOG       37  37 100 SE3       30.05F VSB<1/4
LOWELL           N/A     38  36  92 CALM      30.12S
COEUR D`ALENE  CLOUDY    37  34  87 SW6       30.00S WCI  33
MULLAN PASS    LGT SNOW  28  25  88 VRB6      29.92S VSB 3/4 WCI  22
$$


USA.gov is the U.S. government's official web portal to all federal, state and local government web resources and services.